Vorticity
8 11 12 9 20 11 4 8 13 5 15 15 -8 16 -3 12 -5 -13 10 11 -2 -7 2 -6 20 23 30 19 16 22 31 23 23 57 58 13 39 31 18 18 22 43 51 40
9 11 12 13 16 8 7 11 9 10 -4 14 -0 7 16 3 -5 -1 -2 3 9 11 -0 11 1 32 2 5 11 14 19 29 12 -28 -7 73 17 20 35 30 14 22 18 36
12 11 10 8 9 6 10 1 3 3 21 13 10 18 8 2 -1 5 3 12 17 8 14 12 6 4 3 23 2 13 20 31 43 21 38 29 37 29 26 32 45 44 49 42
12 11 7 12 4 8 15 10 9 2 -6 7 11 9 3 -1 28 40 34 33 36 24 16 38 39 29 34 28 23 37 -7 11 45 40 13 -7 61 63 30 -2 -3 43 -2 8
10 12 11 8 3 -1 1 -2 -2 -5 5 4 7 11 39 34 7 6 3 3 7 2 10 9 -1 0 9 1 -2 -9 -14 1 2 -5 17 6 48 22 -16 -18 6 31 76 69
8 9 9 6 6 12 5 5 11 10 17 15 32 13 -1 7 4 7 8 2 -0 4 1 1 -0 0 2 1 1 4 2 5 0 -2 0 4 4 -6 13 14 -16 3 -9 1
9 12 11 13 5 7 25 27 27 36 38 37 1 6 6 3 2 3 4 6 4 5 4 1 5 7 3 3 3 3 3 4 3 4 3 2 1 1 0 1 1 2 2 2
15 12 12 15 19 20 12 3 4 6 8 10 9 5 4 4 5 5 5 6 4 1 1 4 4 4 4 4 4 3 4 2 -0 0 0 2 2 2 3 2 2 2 2 2
11 9 9 8 7 10 8 10 10 9 8 6 4 2 3 3 3 3 3 4 4 4 3 1 4 6 5 6 5 5 5 5 5 5 5 4 3 3 3 3 3 3 2 3
4 2 4 7 10 8 6 4 1 1 -0 1 2 3 3 0 3 1 2 1 0 3 6 5 3 3 3 4 3 3 5 5 4 3 4 4 4 4 4 4 4 6 6 6
2 3 4 4 3 3 2 0 -3 -0 1 3 4 4 4 3 1 3 1 1 5 6 6 7 7 5 3 5 3 3 3 4 3 3 5 6 4 3 3 3 4 6 7 6
3 4 5 4 3 3 3 2 2 2 3 4 5 5 3 2 3 4 5 5 3 3 4 4 3 4 2 3 2 1 3 3 4 4 4 2 1 2 0 4 9 8 7 5
4 3 1 3 4 6 5 5 4 3 4 3 3 3 4 5 5 4 5 5 4 5 7 7 7 6 5 4 4 3 3 4 3 2 1 1 1 2 1 4 -1 2 7 6
10 10 8 8 7 6 4 4 5 4 3 3 3 3 3 3 2 0 2 1 0 1 1 1 1 2 3 4 3 3 5 5 6 6 7 6 5 6 7 6 1 -2 2 4
8 9 12 14 13 10 9 6 6 5 6 7 7 7 5 3 3 4 4 4 3 2 3 4 3 2 3 5 6 6 7 7 6 7 7 7 7 7 7 8 3 -0 5 2
6 9 8 5 5 10 14 11 7 7 6 6 8 9 10 12 12 9 8 6 5 5 7 7 7 6 4 5 7 7 7 8 7 6 6 6 5 5 5 5 5 6 8 7
4 5 9 8 5 7 9 9 8 8 10 14 12 9 7 8 8 10 10 11 11 11 10 8 7 9 8 8 7 6 6 6 6 7 8 7 7 6 6 6 6 4 5 4
15 12 10 9 9 9 8 8 9 9 8 9 9 8 8 8 9 8 7 6 5 6 7 9 8 6 8 8 8 8 7 8 8 8 8 8 7 7 6 5 5 5 15 20
6 4 5 5 6 6 6 5 6 8 7 6 6 6 8 9 10 11 11 9 8 7 7 6 6 6 6 6 6 6 7 7 8 8 8 8 7 5 6 16 20 17 8 8
0 12 19 19 15 14 12 18 18 18 20 23 22 16 11 7 7 8 7 10 6 6 6 6 6 6 6 5 3 3 2 3 3 4 6 4 3 5 7 2 20 1 7 15
22 32 26 22 19 21 11 0 2 3 1 1 3 3 6 5 4 4 4 5 7 5 5 5 6 6 6 4 5 6 8 10 8 7 6 5 7 5 6 4 8 3 3 10
6 1 1 6 7 -5 9 1 8 10 7 4 1 2 4 4 1 -2 -2 1 1 2 3 6 6 6 5 4 4 5 6 4 7 11 9 9 7 6 7 11 10 11 3 5
-1 -0 0 2 6 6 5 2 3 4 4 5 5 2 -0 -0 -0 -0 3 10 15 16 15 14 13 14 12 12 12 13 13 14 15 12 15 12 7 9 10 13 22 6 6 15
1 2 5 4 7 8 7 8 9 10 11 8 2 1 3 17 25 17 11 13 18 22 24 24 26 28 29 30 27 33 32 30 24 19 22 16 11 17 19 21 19 -6 5 14
21 11 9 7 5 7 10 11 11 9 6 10 20 20 6 12 12 9 12 13 13 17 19 16 7 6 15 23 18 14 12 46 6 27 26 16 19 12 16 17 2 6 11 17
5 3 -0 -11 -0 13 12 11 8 12 15 13 7 6 8 8 8 11 15 15 23 18 8 17 42 26 22 47 36 33 30 7 52 25 -18 32 27 21 24 18 5 14 20 18
7 5 -1 13 21 16 14 13 13 12 8 6 7 8 12 14 13 15 15 17 21 4 37 0 29 16 21 40 42 39 15 16 12 24 27 17 21 14 9 8 17 20 23 18
Height
5662 5660 5659 5657 5655 5655 5654 5654 5654 5653 5651 5649 5647 5645 5644 5643 5641 5639 5638 5635 5633 5630 5625 5621 5616 5611 5608 5607 5607 5608 5604 5597 5591 5582 5569 5563 5561 5559 5559 5560 5562 5564 5568 5575
5663 5661 5660 5659 5658 5658 5658 5658 5657 5656 5654 5653 5652 5650 5649 5648 5647 5645 5642 5641 5637 5634 5630 5628 5623 5617 5615 5613 5611 5607 5601 5595 5589 5583 5574 5567 5561 5560 5560 5559 5561 5564 5569 5574
5663 5662 5661 5662 5661 5661 5662 5661 5661 5660 5659 5656 5656 5654 5653 5652 5650 5648 5644 5641 5639 5637 5634 5633 5630 5627 5623 5618 5614 5610 5602 5594 5590 5585 5580 5573 5569 5563 5561 5561 5563 5567 5571 5578
5665 5663 5664 5664 5663 5665 5665 5665 5664 5663 5661 5660 5658 5657 5655 5653 5652 5650 5648 5645 5643 5643 5641 5637 5635 5634 5630 5624 5621 5616 5612 5604 5597 5591 5588 5584 5580 5576 5573 5572 5572 5578 5583 5590
5667 5667 5668 5666 5667 5667 5666 5667 5666 5665 5664 5663 5661 5660 5658 5658 5657 5656 5654 5651 5650 5650 5648 5644 5641 5640 5637 5632 5627 5625 5624 5617 5611 5604 5599 5597 5591 5590 5590 5588 5589 5594 5598 5603
5670 5669 5670 5670 5669 5670 5669 5668 5666 5663 5663 5664 5664 5664 5664 5662 5661 5660 5659 5657 5656 5655 5654 5651 5649 5646 5644 5640 5635 5631 5630 5627 5622 5617 5613 5608 5605 5605 5604 5604 5604 5610 5615 5620
5675 5673 5673 5672 5672 5671 5671 5672 5666 5664 5664 5666 5668 5668 5667 5666 5665 5664 5664 5663 5661 5660 5658 5655 5653 5651 5648 5644 5640 5636 5634 5632 5629 5625 5621 5618 5617 5615 5616 5617 5620 5622 5624 5626
5679 5677 5676 5675 5674 5675 5675 5673 5672 5670 5671 5672 5672 5673 5672 5671 5670 5669 5668 5667 5666 5664 5662 5660 5658 5655 5652 5649 5646 5642 5640 5637 5635 5633 5630 5628 5627 5626 5626 5627 5628 5628 5629 5629
5685 5683 5681 5680 5680 5679 5679 5678 5676 5676 5675 5675 5675 5675 5674 5673 5673 5672 5671 5670 5668 5666 5664 5662 5660 5658 5655 5652 5649 5646 5643 5640 5638 5636 5634 5633 5632 5631 5631 5631 5631 5631 5631 5631
5688 5686 5684 5684 5683 5683 5682 5682 5681 5680 5679 5678 5678 5677 5676 5675 5674 5673 5672 5670 5669 5667 5665 5663 5661 5659 5656 5654 5651 5648 5646 5643 5641 5639 5636 5634 5632 5631 5630 5629 5628 5628 5627 5627
5690 5688 5687 5686 5685 5684 5684 5683 5683 5682 5681 5680 5679 5678 5677 5676 5674 5673 5672 5670 5668 5666 5665 5663 5661 5658 5656 5654 5651 5649 5646 5644 5641 5639 5637 5635 5633 5631 5629 5627 5625 5623 5622 5620
5690 5689 5688 5687 5685 5685 5684 5683 5682 5681 5680 5679 5679 5677 5676 5674 5673 5671 5670 5668 5666 5664 5663 5661 5659 5656 5654 5652 5649 5647 5644 5642 5640 5637 5635 5633 5631 5629 5626 5624 5621 5619 5616 5614
5687 5686 5685 5684 5683 5682 5681 5681 5679 5678 5677 5675 5674 5673 5672 5671 5669 5668 5667 5665 5663 5661 5659 5656 5654 5652 5650 5647 5645 5643 5641 5638 5636 5634 5631 5629 5626 5623 5620 5618 5615 5612 5609 5606
5681 5681 5679 5679 5678 5678 5677 5676 5674 5673 5672 5671 5669 5668 5667 5665 5664 5662 5661 5659 5657 5655 5653 5651 5649 5646 5644 5641 5639 5637 5634 5632 5629 5626 5624 5621 5618 5615 5612 5608 5605 5602 5598 5594
5675 5675 5674 5672 5671 5669 5668 5667 5666 5665 5664 5663 5662 5661 5659 5657 5656 5655 5653 5651 5649 5647 5644 5643 5640 5637 5635 5632 5630 5627 5625 5622 5619 5616 5613 5610 5607 5604 5600 5596 5592 5589 5585 5581
5668 5667 5666 5665 5663 5662 5661 5660 5658 5656 5655 5653 5652 5650 5649 5649 5648 5646 5643 5640 5638 5637 5635 5632 5629 5627 5625 5621 5618 5615 5612 5609 5606 5602 5599 5596 5593 5589 5586 5582 5577 5573 5570 5567
5658 5659 5657 5656 5655 5654 5654 5653 5651 5649 5647 5645 5643 5642 5640 5638 5636 5634 5631 5628 5626 5625 5622 5620 5615 5612 5610 5607 5604 5600 5597 5594 5591 5588 5585 5582 5578 5575 5571 5566 5563 5559 5555 5549
5651 5649 5648 5646 5645 5645 5644 5643 5641 5640 5638 5637 5635 5634 5631 5629 5627 5623 5619 5615 5613 5612 5609 5605 5601 5599 5596 5592 5588 5585 5582 5579 5575 5572 5569 5565 5562 5558 5554 5549 5545 5541 5536 5530
5641 5641 5640 5639 5637 5635 5633 5632 5630 5628 5627 5625 5623 5622 5620 5619 5616 5615 5611 5607 5605 5601 5599 5592 5588 5584 5581 5577 5574 5570 5566 5562 5559 5555 5551 5548 5544 5539 5536 5533 5529 5523 5518 5513
5633 5630 5626 5625 5625 5624 5622 5621 5619 5617 5616 5614 5612 5610 5608 5605 5602 5599 5595 5593 5590 5587 5581 5577 5571 5568 5565 5561 5556 5552 5548 5544 5541 5537 5532 5528 5524 5521 5519 5515 5511 5505 5501 5495
5619 5618 5615 5613 5613 5613 5612 5612 5610 5609 5607 5605 5603 5600 5597 5594 5589 5585 5582 5578 5574 5567 5563 5559 5555 5550 5545 5541 5536 5533 5529 5525 5521 5516 5512 5508 5504 5500 5501 5496 5492 5487 5483 5477
5607 5606 5605 5607 5608 5607 5605 5603 5603 5601 5598 5594 5591 5588 5584 5581 5576 5572 5568 5563 5558 5552 5548 5541 5535 5529 5523 5517 5512 5508 5504 5500 5496 5493 5489 5485 5481 5479 5480 5477 5474 5469 5464 5459
5597 5596 5597 5597 5598 5597 5594 5591 5590 5587 5584 5580 5577 5573 5569 5564 5559 5554 5549 5542 5537 5530 5525 5518 5510 5502 5496 5490 5486 5481 5476 5473 5470 5467 5464 5461 5458 5459 5459 5456 5453 5450 5445 5441
5587 5586 5586 5585 5585 5584 5583 5580 5577 5573 5570 5567 5563 5558 5553 5548 5542 5534 5529 5522 5515 5507 5499 5491 5483 5474 5467 5462 5457 5452 5447 5444 5442 5441 5440 5437 5437 5437 5438 5436 5434 5431 5428 5424
5579 5578 5576 5575 5573 5571 5568 5565 5562 5558 5554 5550 5545 5538 5533 5527 5522 5515 5506 5497 5488 5480 5473 5466 5457 5450 5443 5437 5431 5426 5423 5422 5422 5420 5418 5417 5417 5418 5416 5414 5413 5413 5410 5408
5563 5561 5561 5559 5557 5555 5552 5548 5545 5541 5537 5534 5528 5522 5515 5506 5499 5492 5485 5477 5468 5460 5452 5444 5434 5425 5416 5409 5404 5401 5401 5401 5401 5401 5402 5399 5398 5398 5397 5398 5397 5396 5393 5391
5544 5544 5545 5544 5541 5540 5537 5533 5530 5525 5520 5516 5512 5504 5497 5490 5481 5472 5465 5458 5449 5442 5433 5427 5417 5407 5397 5389 5383 5383 5385 5385 5386 5385 5385 5385 5385 5384 5382 5382 5380 5379 5377 5375